Time,TemperatureF,DewpointF,PressureIn,WindDirection,WindDirectionDegrees,WindSpeedMPH,WindSpeedGustMPH,Humidity,HourlyPrecipIn,Conditions,Clouds,dailyrainin,SolarRadiationWatts/m^2,SoftwareType,DateUTC
2013-02-27 00:03:00,29.8,28.5,29.85,WNW,299,3.5,5.8,95,0.00,RA,,0.00,0.0,WeatherDisplay:10.37,2013-02-27 06:03:00,
2013-02-27 00:09:00,29.8,28.5,29.85,WNW,286,3.3,4.6,95,0.00,OVC,,0.00,0.0,WeatherDisplay:10.37,2013-02-27 06:09:00,
2013-02-27 00:14:00,29.7,28.4,29.85,West,269,2.9,5.0,95,0.00,-SN,,0.00,0.0,WeatherDisplay:10.37,2013-02-27 06:14:00,
2013-02-27 00:19:00,29.7,28.4,29.85,West,281,2.5,9.2,95,0.00,-SN,,0.00,0.0,WeatherDisplay:10.37,2013-02-27 06:19:00,
2013-02-27 00:24:00,29.6,28.3,29.85,West,278,2.4,4.0,95,0.00,-SN,,0.00,0.0,WeatherDisplay:10.37,2013-02-27 06:24:00,
2013-02-27 00:30:00,29.6,28.3,29.85,WNW,302,2.1,3.5,95,0.00,-SN,,0.00,0.0,WeatherDisplay:10.37,2013-02-27 06:30:00,
2013-02-27 00:35:00,29.5,28.2,29.85,West,278,3.1,5.8,95,0.00,-SN,,0.00,0.0,WeatherDisplay:10.37,2013-02-27 06:35:00,
2013-02-27 00:40:00,29.4,28.1,29.85,NW,326,3.7,6.9,95,0.00,-SN,,0.00,0.0,WeatherDisplay:10.37,2013-02-27 06:40:00,
2013-02-27 00:45:00,29.4,28.1,29.85,West,275,3.0,5.8,95,0.00,-SN,,0.00,0.0,WeatherDisplay:10.37,2013-02-27 06:45:00,
2013-02-27 00:51:00,29.3,28.0,29.85,WNW,299,3.7,3.7,95,0.00,-SN,,0.00,0.0,WeatherDisplay:10.37,2013-02-27 06:51:00,
2013-02-27 00:56:00,29.3,28.0,29.85,WNW,288,1.0,7.0,95,0.00,-SN,-SN,0.00,0.0,WeatherDisplay:10.37,2013-02-27 06:56:00,
2013-02-27 01:01:00,29.3,28.0,29.85,West,273,3.1,3.5,95,0.00,-SN,,0.00,0.0,WeatherDisplay:10.37,2013-02-27 07:01:00,
2013-02-27 01:06:00,29.3,28.0,29.85,WNW,282,2.6,5.0,95,0.00,-SN,,0.00,0.0,WeatherDisplay:10.37,2013-02-27 07:06:00,
2013-02-27 01:11:00,29.4,28.1,29.85,West,261,3.0,5.0,95,0.00,-SN,,0.00,0.0,WeatherDisplay:10.37,2013-02-27 07:11:00,
2013-02-27 01:17:00,29.5,28.2,29.85,WNW,289,3.7,6.9,95,0.00,-SN,,0.00,0.0,WeatherDisplay:10.37,2013-02-27 07:17:00,
2013-02-27 01:22:00,29.5,28.2,29.85,WNW,296,1.8,3.5,95,0.00,-SN,,0.00,0.0,WeatherDisplay:10.37,2013-02-27 07:22:00,
2013-02-27 01:27:00,29.5,28.2,29.85,NNW,336,1.7,3.5,95,0.00,-SN,,0.00,0.0,WeatherDisplay:10.37,2013-02-27 07:27:00,
2013-02-27 01:32:00,29.5,28.2,29.85,West,281,3.5,5.8,95,0.00,-SN,,0.00,0.0,WeatherDisplay:10.37,2013-02-27 07:32:00,
2013-02-27 01:38:00,29.5,28.2,29.85,NW,321,2.4,3.5,95,0.00,-SN,,0.00,0.0,WeatherDisplay:10.37,2013-02-27 07:38:00,
2013-02-27 01:43:00,29.5,28.2,29.84,NW,323,3.8,7.0,95,0.00,-SN,,0.00,0.0,WeatherDisplay:10.37,2013-02-27 07:43:00,
2013-02-27 01:48:00,29.5,28.2,29.84,West,259,4.3,8.1,95,0.00,-SN,,0.00,0.0,WeatherDisplay:10.37,2013-02-27 07:48:00,
2013-02-27 01:53:00,29.5,28.2,29.85,West,269,2.2,5.0,95,0.00,-SN,,0.00,0.0,WeatherDisplay:10.37,2013-02-27 07:53:00,
2013-02-27 01:59:00,29.5,28.2,29.84,West,269,2.7,6.9,95,0.00,-SN,,0.00,0.0,WeatherDisplay:10.37,2013-02-27 07:59:00,
2013-02-27 02:04:00,29.5,28.2,29.85,West,281,3.2,5.8,95,0.00,-SN,,0.00,0.0,WeatherDisplay:10.37,2013-02-27 08:04:00,
2013-02-27 02:09:00,29.5,28.2,29.85,West,275,2.6,3.5,95,0.00,-SN,,0.00,0.0,WeatherDisplay:10.37,2013-02-27 08:09:00,
2013-02-27 02:14:00,29.5,28.2,29.84,WNW,285,2.7,3.5,95,0.00,-SN,,0.00,0.0,WeatherDisplay:10.37,2013-02-27 08:14:00,
2013-02-27 02:20:00,29.4,28.1,29.85,NNW,331,2.8,5.8,95,0.00,-SN,,0.00,0.0,WeatherDisplay:10.37,2013-02-27 08:20:00,
2013-02-27 02:25:00,29.3,28.0,29.85,WNW,290,1.6,3.5,95,0.00,-SN,,0.00,0.0,WeatherDisplay:10.37,2013-02-27 08:25:00,
2013-02-27 02:30:00,29.3,28.0,29.85,WNW,282,2.8,5.8,95,0.00,-SN,,0.00,0.0,WeatherDisplay:10.37,2013-02-27 08:30:00,
2013-02-27 02:36:00,29.1,27.8,29.85,NW,324,3.3,5.8,95,0.00,-SN,,0.00,0.0,WeatherDisplay:10.37,2013-02-27 08:36:00,
2013-02-27 02:41:00,28.9,27.4,29.85,West,277,2.6,5.8,94,0.00,-SN,,0.00,0.0,WeatherDisplay:10.37,2013-02-27 08:41:00,
2013-02-27 02:46:00,28.7,27.2,29.85,WNW,288,3.0,8.0,94,0.00,-SN,-SN,0.00,0.0,WeatherDisplay:10.37,2013-02-27 08:46:00,
2013-02-27 02:51:00,28.5,27.3,29.85,West,271,3.0,5.0,95,0.00,-SN,,0.00,0.0,WeatherDisplay:10.37,2013-02-27 08:51:00,
2013-02-27 02:56:00,28.4,27.2,29.85,WNW,282,3.8,5.8,95,0.00,-SN,,0.00,0.0,WeatherDisplay:10.37,2013-02-27 08:56:00,
2013-02-27 03:01:00,28.3,26.8,29.85,West,278,2.2,3.5,94,0.00,-SN,,0.00,0.0,WeatherDisplay:10.37,2013-02-27 09:01:00,
2013-02-27 03:07:00,28.3,27.1,29.85,NW,309,2.5,3.5,95,0.00,-SN,,0.00,0.0,WeatherDisplay:10.37,2013-02-27 09:07:00,
2013-02-27 03:12:00,28.2,27.0,29.85,West,269,2.5,3.5,95,0.00,-SN,,0.00,0.0,WeatherDisplay:10.37,2013-02-27 09:12:00,
2013-02-27 03:17:00,28.1,26.6,29.85,WNW,292,2.4,3.5,94,0.00,-SN,,0.00,0.0,WeatherDisplay:10.37,2013-02-27 09:17:00,
2013-02-27 03:22:00,28.1,26.6,29.85,West,267,3.5,4.6,94,0.00,-SN,,0.00,0.0,WeatherDisplay:10.37,2013-02-27 09:22:00,
2013-02-27 03:28:00,28.0,26.5,29.85,WNW,293,3.1,6.9,94,0.00,-SN,,0.00,0.0,WeatherDisplay:10.37,2013-02-27 09:28:00,
2013-02-27 03:33:00,27.9,26.4,29.85,West,266,3.4,4.6,94,0.00,-SN,,0.00,0.0,WeatherDisplay:10.37,2013-02-27 09:33:00,
2013-02-27 03:38:00,27.9,26.4,29.85,WNW,287,3.2,8.1,94,0.00,-SN,,0.00,0.0,WeatherDisplay:10.37,2013-02-27 09:38:00,
2013-02-27 03:43:00,27.9,26.4,29.85,NW,313,3.3,4.6,94,0.00,-SN,,0.00,0.0,WeatherDisplay:10.37,2013-02-27 09:43:00,
2013-02-27 03:49:00,27.9,26.4,29.86,WNW,292,2.7,6.0,94,0.00,-SN,,0.00,0.0,WeatherDisplay:10.37,2013-02-27 09:49:00,
2013-02-27 03:54:00,27.9,26.4,29.86,West,273,2.9,4.6,94,0.00,-SN,,0.00,0.0,WeatherDisplay:10.37,2013-02-27 09:54:00,
2013-02-27 03:59:00,27.9,26.4,29.86,WNW,289,6.9,11.5,94,0.00,-SN,,0.00,0.0,WeatherDisplay:10.37,2013-02-27 09:59:00,
2013-02-27 04:04:00,27.9,26.4,29.86,NNW,335,2.7,4.0,94,0.00,-SN,,0.00,0.0,WeatherDisplay:10.37,2013-02-27 10:04:00,
2013-02-27 04:10:00,27.9,26.4,29.86,NW,309,1.6,3.5,94,0.00,-SN,,0.00,0.0,WeatherDisplay:10.37,2013-02-27 10:10:00,
2013-02-27 04:15:00,27.9,26.4,29.86,WNW,299,2.8,4.0,94,0.00,-SN,,0.00,0.0,WeatherDisplay:10.37,2013-02-27 10:15:00,
2013-02-27 04:20:00,27.9,26.4,29.86,West,274,2.8,3.5,94,0.00,-SN,,0.00,0.0,WeatherDisplay:10.37,2013-02-27 10:20:00,
2013-02-27 04:25:00,27.9,26.4,29.86,West,279,3.5,4.6,94,0.00,-SN,,0.00,0.0,WeatherDisplay:10.37,2013-02-27 10:25:00,
2013-02-27 04:31:00,27.9,26.4,29.86,West,265,1.7,4.6,94,0.00,-SN,,0.00,0.0,WeatherDisplay:10.37,2013-02-27 10:31:00,
2013-02-27 04:36:00,27.9,26.4,29.86,WNW,282,2.0,10.0,94,0.00,-SN,-SN,0.00,0.0,WeatherDisplay:10.37,2013-02-27 10:36:00,
2013-02-27 04:41:00,27.9,26.4,29.85,WNW,291,4.4,4.6,94,0.00,-SN,,0.00,0.0,WeatherDisplay:10.37,2013-02-27 10:41:00,
2013-02-27 04:46:00,27.8,26.3,29.85,West,279,2.6,4.0,94,0.00,-SN,,0.00,0.0,WeatherDisplay:10.37,2013-02-27 10:46:00,
2013-02-27 04:51:00,27.8,26.3,29.85,West,279,3.3,5.8,94,0.00,-SN,,0.00,0.0,WeatherDisplay:10.37,2013-02-27 10:51:00,
2013-02-27 04:57:00,27.7,26.2,29.86,WNW,284,1.5,3.5,94,0.00,-SN,,0.00,0.0,WeatherDisplay:10.37,2013-02-27 10:57:00,
2013-02-27 05:02:00,27.7,26.2,29.86,West,267,0.0,3.0,94,0.00,-SN,,0.00,0.0,WeatherDisplay:10.37,2013-02-27 11:02:00,
2013-02-27 05:07:00,27.7,26.2,29.86,West,267,2.8,7.0,94,0.00,-SN,,0.00,0.0,WeatherDisplay:10.37,2013-02-27 11:07:00,
2013-02-27 05:12:00,27.6,26.1,29.86,NW,309,2.3,3.5,94,0.00,-SN,,0.00,0.0,WeatherDisplay:10.37,2013-02-27 11:12:00,
2013-02-27 05:17:00,27.6,26.1,29.86,West,267,5.3,8.1,94,0.00,-SN,,0.00,0.0,WeatherDisplay:10.37,2013-02-27 11:17:00,
2013-02-27 05:23:00,27.7,26.2,29.86,NW,304,1.8,4.0,94,0.00,-SN,,0.00,0.0,WeatherDisplay:10.37,2013-02-27 11:23:00,
2013-02-27 05:28:00,27.7,26.2,29.85,WNW,289,3.7,3.7,94,0.00,-SN,,0.00,0.0,WeatherDisplay:10.37,2013-02-27 11:28:00,
2013-02-27 05:33:00,27.7,26.2,29.86,SW,233,2.5,3.5,94,0.00,-SN,,0.00,0.0,WeatherDisplay:10.37,2013-02-27 11:33:00,
2013-02-27 05:38:00,27.6,26.1,29.86,West,267,3.3,5.0,94,0.00,-SN,,0.00,0.0,WeatherDisplay:10.37,2013-02-27 11:38:00,
2013-02-27 05:44:00,27.6,26.1,29.85,WNW,283,3.5,4.6,94,0.00,-SN,,0.00,0.0,WeatherDisplay:10.37,2013-02-27 11:44:00,
2013-02-27 05:49:00,27.6,26.1,29.85,WSW,242,3.0,3.5,94,0.00,-SN,,0.00,0.0,WeatherDisplay:10.37,2013-02-27 11:49:00,
2013-02-27 05:54:00,27.5,26.0,29.85,West,281,2.7,4.6,94,0.00,-SN,,0.00,0.0,WeatherDisplay:10.37,2013-02-27 11:54:00,
2013-02-27 05:59:00,27.5,26.3,29.86,West,262,3.3,4.6,95,0.00,-SN,,0.00,0.0,WeatherDisplay:10.37,2013-02-27 11:59:00,
2013-02-27 06:05:00,27.5,26.0,29.86,WNW,282,3.4,4.6,94,0.00,-SN,,0.00,0.0,WeatherDisplay:10.37,2013-02-27 12:05:00,
2013-02-27 06:10:00,27.4,25.9,29.86,NW,306,2.1,3.5,94,0.00,-SN,,0.00,0.0,WeatherDisplay:10.37,2013-02-27 12:10:00,
2013-02-27 06:15:00,27.4,25.9,29.86,WNW,284,2.5,6.9,94,0.00,-SN,,0.00,0.0,WeatherDisplay:10.37,2013-02-27 12:15:00,
2013-02-27 06:20:00,27.3,26.1,29.86,NW,311,4.5,6.9,95,0.00,-SN,,0.00,0.0,WeatherDisplay:10.37,2013-02-27 12:20:00,
2013-02-27 06:26:00,27.4,26.2,29.85,WNW,303,5.1,8.1,95,0.00,-SN,,0.00,0.0,WeatherDisplay:10.37,2013-02-27 12:26:00,
2013-02-27 06:31:00,27.4,25.9,29.86,NW,311,1.4,5.8,94,0.00,-SN,,0.00,0.0,WeatherDisplay:10.37,2013-02-27 12:31:00,
2013-02-27 06:36:00,27.4,25.9,29.86,West,266,2.3,4.0,94,0.00,-SN,,0.00,0.0,WeatherDisplay:10.37,2013-02-27 12:36:00,
2013-02-27 06:41:00,27.3,25.8,29.86,West,280,4.9,6.9,94,0.00,-SN,,0.00,0.0,WeatherDisplay:10.37,2013-02-27 12:41:00,
2013-02-27 06:46:00,27.3,25.8,29.86,West,264,2.1,5.0,94,0.00,-SN,,0.00,0.0,WeatherDisplay:10.37,2013-02-27 12:46:00,
2013-02-27 06:51:00,27.3,25.8,29.86,West,273,3.1,9.2,94,0.00,-SN,,0.00,0.0,WeatherDisplay:10.37,2013-02-27 12:51:00,
2013-02-27 06:57:00,27.3,25.8,29.86,NW,317,3.7,6.0,94,0.00,-SN,,0.00,0.0,WeatherDisplay:10.37,2013-02-27 12:57:00,
2013-02-27 07:02:00,27.3,25.8,29.86,NW,308,3.0,5.8,94,0.00,-SN,,0.00,0.0,WeatherDisplay:10.37,2013-02-27 13:02:00,
2013-02-27 07:07:00,27.4,25.9,29.86,WSW,255,4.7,8.1,94,0.00,-SN,,0.00,0.0,WeatherDisplay:10.37,2013-02-27 13:07:00,
2013-02-27 07:12:00,27.3,25.8,29.86,West,269,3.0,3.5,94,0.00,-SN,,0.00,0.0,WeatherDisplay:10.37,2013-02-27 13:12:00,
2013-02-27 07:17:00,27.3,25.5,29.87,West,267,4.8,6.9,93,0.00,-SN,,0.00,0.0,WeatherDisplay:10.37,2013-02-27 13:17:00,
2013-02-27 07:23:00,27.3,25.5,29.87,WNW,293,4.2,10.4,93,0.00,-SN,,0.00,7.0,WeatherDisplay:10.37,2013-02-27 13:23:00,
2013-02-27 07:28:00,27.3,25.5,29.87,WNW,303,3.2,6.9,93,0.00,-SN,,0.00,7.0,WeatherDisplay:10.37,2013-02-27 13:28:00,
2013-02-27 07:33:00,27.2,25.4,29.87,West,280,5.1,6.9,93,0.00,-SN,,0.00,9.8,WeatherDisplay:10.37,2013-02-27 13:33:00,
2013-02-27 07:38:00,27.3,25.5,29.87,West,275,3.3,9.2,93,0.00,-SN,,0.00,9.8,WeatherDisplay:10.37,2013-02-27 13:38:00,
2013-02-27 07:44:00,27.3,25.5,29.88,West,273,2.5,7.0,93,0.00,-SN,,0.00,9.8,WeatherDisplay:10.37,2013-02-27 13:44:00,
2013-02-27 07:49:00,27.3,25.5,29.88,West,277,2.7,7.0,93,0.00,-SN,,0.00,9.8,WeatherDisplay:10.37,2013-02-27 13:49:00,
2013-02-27 07:54:00,27.3,25.5,29.88,WNW,286,5.1,8.1,93,0.00,-SN,,0.00,12.6,WeatherDisplay:10.37,2013-02-27 13:54:00,
2013-02-27 07:59:00,27.3,25.5,29.89,West,274,2.2,8.1,93,0.00,-SN,,0.00,9.8,WeatherDisplay:10.37,2013-02-27 13:59:00,
2013-02-27 08:05:00,27.3,25.5,29.89,West,269,4.9,11.5,93,0.00,-SN,,0.00,9.8,WeatherDisplay:10.37,2013-02-27 14:05:00,
2013-02-27 08:10:00,27.3,25.5,29.89,West,278,2.6,3.5,93,0.00,-SN,,0.00,15.4,WeatherDisplay:10.37,2013-02-27 14:10:00,
2013-02-27 08:15:00,27.4,25.6,29.90,WNW,284,4.5,8.1,93,0.00,-SN,,0.00,15.4,WeatherDisplay:10.37,2013-02-27 14:15:00,
2013-02-27 08:20:00,27.3,25.5,29.90,NW,310,4.6,8.1,93,0.00,-SN,,0.00,16.8,WeatherDisplay:10.37,2013-02-27 14:20:00,
2013-02-27 08:26:00,27.4,25.6,29.90,WNW,290,3.4,6.9,93,0.00,-SN,,0.00,19.6,WeatherDisplay:10.37,2013-02-27 14:26:00,
2013-02-27 08:31:00,27.4,25.6,29.90,West,269,4.4,8.1,93,0.00,-SN,,0.00,26.6,WeatherDisplay:10.37,2013-02-27 14:31:00,
2013-02-27 08:36:00,27.5,25.7,29.90,West,269,3.9,8.0,93,0.00,-SN,,0.00,29.4,WeatherDisplay:10.37,2013-02-27 14:36:00,
2013-02-27 08:41:00,27.5,25.7,29.90,North,360,3.1,8.1,93,0.00,-SN,,0.00,29.4,WeatherDisplay:10.37,2013-02-27 14:41:00,
2013-02-27 08:47:00,27.6,25.8,29.90,West,277,4.4,5.8,93,0.00,-SN,,0.00,29.4,WeatherDisplay:10.37,2013-02-27 14:47:00,
2013-02-27 08:52:00,27.6,25.8,29.90,WNW,288,2.3,5.0,93,0.00,-SN,,0.00,32.2,WeatherDisplay:10.37,2013-02-27 14:52:00,
2013-02-27 08:57:00,27.8,26.3,29.90,WSW,244,3.8,10.4,94,0.00,-SN,,0.00,36.4,WeatherDisplay:10.37,2013-02-27 14:57:00,
2013-02-27 09:02:00,27.9,26.4,29.90,West,261,5.8,8.1,94,0.00,-SN,,0.00,39.2,WeatherDisplay:10.37,2013-02-27 15:02:00,
2013-02-27 09:08:00,28.0,26.5,29.90,West,281,3.2,11.5,94,0.00,-SN,,0.00,46.2,WeatherDisplay:10.37,2013-02-27 15:08:00,
2013-02-27 09:13:00,28.1,26.6,29.90,WNW,295,3.2,6.9,94,0.00,-SN,,0.00,46.2,WeatherDisplay:10.37,2013-02-27 15:13:00,
2013-02-27 09:18:00,28.2,26.7,29.90,WNW,289,5.5,8.1,94,0.00,-SN,,0.00,51.8,WeatherDisplay:10.37,2013-02-27 15:18:00,
2013-02-27 09:23:00,28.3,26.5,29.90,West,267,4.4,6.0,93,0.00,-SN,,0.00,56.0,WeatherDisplay:10.37,2013-02-27 15:23:00,
2013-02-27 09:29:00,28.5,26.7,29.90,WNW,286,3.7,4.0,93,0.00,-SN,,0.00,64.4,WeatherDisplay:10.37,2013-02-27 15:29:00,
2013-02-27 09:34:00,28.6,26.8,29.90,WNW,294,5.7,11.5,93,0.00,-SN,,0.00,64.4,WeatherDisplay:10.37,2013-02-27 15:34:00,
2013-02-27 09:39:00,28.7,26.9,29.90,NNW,329,5.4,10.4,93,0.00,-SN,,0.00,61.6,WeatherDisplay:10.37,2013-02-27 15:39:00,
2013-02-27 09:44:00,28.9,27.1,29.91,WNW,297,5.0,8.1,93,0.00,-SN,,0.00,61.6,WeatherDisplay:10.37,2013-02-27 15:44:00,
2013-02-27 09:50:00,29.0,27.2,29.91,WNW,290,2.7,11.5,93,0.00,-SN,,0.00,71.4,WeatherDisplay:10.37,2013-02-27 15:50:00,
2013-02-27 09:55:00,29.2,27.2,29.91,West,276,4.2,5.8,92,0.00,-SN,,0.00,58.8,WeatherDisplay:10.37,2013-02-27 15:55:00,
2013-02-27 10:00:00,29.4,27.4,29.91,NW,311,6.6,11.5,92,0.00,-SN,,0.00,54.6,WeatherDisplay:10.37,2013-02-27 16:00:00,
2013-02-27 10:05:00,29.4,27.1,29.91,WNW,296,6.5,9.2,91,0.00,-SN,,0.00,54.6,WeatherDisplay:10.37,2013-02-27 16:05:00,
2013-02-27 10:11:00,29.5,27.5,29.91,WNW,290,5.4,6.9,92,0.00,-SN,,0.00,56.0,WeatherDisplay:10.37,2013-02-27 16:11:00,
2013-02-27 10:16:00,29.6,27.3,29.92,WNW,282,2.0,10.0,91,0.00,-SN,-SN,0.00,54.6,WeatherDisplay:10.37,2013-02-27 16:16:00,
2013-02-27 10:21:00,29.7,27.7,29.92,WSW,242,3.4,6.9,92,0.00,-SN,,0.00,61.6,WeatherDisplay:10.37,2013-02-27 16:21:00,
2013-02-27 10:26:00,29.7,27.7,29.92,West,275,3.5,4.6,92,0.00,-SN,,0.00,61.6,WeatherDisplay:10.37,2013-02-27 16:26:00,
2013-02-27 10:31:00,29.8,27.5,29.92,WNW,294,4.4,7.0,91,0.00,-SN,,0.00,68.6,WeatherDisplay:10.37,2013-02-27 16:31:00,
2013-02-27 10:37:00,29.8,27.5,29.92,West,265,3.9,6.9,91,0.00,-SN,,0.00,64.4,WeatherDisplay:10.37,2013-02-27 16:37:00,
2013-02-27 10:42:00,29.9,27.6,29.92,WNW,289,4.7,5.8,91,0.00,-SN,,0.00,64.4,WeatherDisplay:10.37,2013-02-27 16:42:00,
2013-02-27 10:47:00,30.0,28.0,29.92,WNW,288,4.9,8.1,92,0.00,-SN,,0.00,61.6,WeatherDisplay:10.37,2013-02-27 16:47:00,
2013-02-27 10:52:00,29.9,27.6,29.92,West,270,3.7,5.0,91,0.00,-SN,,0.00,64.4,WeatherDisplay:10.37,2013-02-27 16:52:00,
2013-02-27 10:58:00,29.9,27.9,29.92,West,268,2.7,4.6,92,0.00,-SN,,0.00,75.6,WeatherDisplay:10.37,2013-02-27 16:58:00,
2013-02-27 11:03:00,30.0,28.0,29.92,WNW,290,3.4,5.0,92,0.00,-SN,,0.00,68.6,WeatherDisplay:10.37,2013-02-27 17:03:00,
2013-02-27 11:08:00,30.1,28.1,29.92,NW,317,3.6,4.6,92,0.00,-SN,,0.00,64.4,WeatherDisplay:10.37,2013-02-27 17:08:00,
2013-02-27 11:13:00,30.2,28.2,29.92,WSW,250,3.8,8.1,92,0.00,-SN,,0.00,74.2,WeatherDisplay:10.37,2013-02-27 17:13:00,
2013-02-27 11:19:00,30.3,28.3,29.92,NNW,346,6.9,11.5,92,0.00,-SN,,0.00,84.0,WeatherDisplay:10.37,2013-02-27 17:19:00,
2013-02-27 11:24:00,30.4,28.4,29.92,West,281,3.2,4.6,92,0.00,-SN,,0.00,78.4,WeatherDisplay:10.37,2013-02-27 17:24:00,
2013-02-27 11:29:00,30.4,28.4,29.92,West,277,3.7,6.9,92,0.00,-SN,,0.00,84.0,WeatherDisplay:10.37,2013-02-27 17:29:00,
2013-02-27 11:34:00,30.5,28.5,29.92,NNW,329,8.3,13.8,92,0.00,-SN,,0.00,86.8,WeatherDisplay:10.37,2013-02-27 17:34:00,
2013-02-27 11:40:00,30.5,28.5,29.93,NW,325,2.7,5.8,92,0.00,-SN,,0.00,91.0,WeatherDisplay:10.37,2013-02-27 17:40:00,
2013-02-27 11:45:00,30.6,28.6,29.93,NW,323,4.1,6.9,92,0.00,-SN,,0.00,88.2,WeatherDisplay:10.37,2013-02-27 17:45:00,
2013-02-27 11:50:00,30.7,28.7,29.93,West,269,7.9,11.0,92,0.00,-SN,,0.00,86.8,WeatherDisplay:10.37,2013-02-27 17:50:00,
2013-02-27 11:55:00,30.7,28.7,29.93,West,275,2.2,5.8,92,0.00,-SN,,0.00,75.6,WeatherDisplay:10.37,2013-02-27 17:55:00,
2013-02-27 12:01:00,30.8,28.5,29.93,WNW,286,5.0,6.9,91,0.00,-SN,,0.00,78.4,WeatherDisplay:10.37,2013-02-27 18:01:00,
2013-02-27 12:06:00,30.7,28.4,29.93,WNW,283,3.0,8.0,91,0.00,-SN,-SN,0.00,84.0,WeatherDisplay:10.37,2013-02-27 18:06:00,
2013-02-27 12:11:00,30.7,28.4,29.93,SSW,204,5.6,8.1,91,0.00,-SN,,0.00,84.0,WeatherDisplay:10.37,2013-02-27 18:11:00,
2013-02-27 12:16:00,30.6,28.3,29.93,West,273,6.6,9.2,91,0.00,-SN,,0.00,98.0,WeatherDisplay:10.37,2013-02-27 18:16:00,
2013-02-27 12:21:00,30.5,28.2,29.92,West,271,6.4,9.2,91,0.00,-SN,,0.00,100.8,WeatherDisplay:10.37,2013-02-27 18:21:00,
2013-02-27 12:27:00,30.6,28.6,29.92,WNW,290,6.4,9.2,92,0.00,-SN,,0.00,96.6,WeatherDisplay:10.37,2013-02-27 18:27:00,
2013-02-27 12:32:00,30.6,28.3,29.92,WSW,247,2.9,5.8,91,0.00,-SN,,0.00,100.8,WeatherDisplay:10.37,2013-02-27 18:32:00,
2013-02-27 12:37:00,30.7,28.4,29.92,West,277,3.2,8.1,91,0.00,-SN,,0.00,91.0,WeatherDisplay:10.37,2013-02-27 18:37:00,
2013-02-27 12:42:00,30.6,28.3,29.93,West,281,9.0,13.8,91,0.00,-SN,,0.00,93.8,WeatherDisplay:10.37,2013-02-27 18:42:00,
2013-02-27 12:48:00,30.6,28.3,29.93,WSW,256,6.1,10.4,91,0.00,-SN,,0.00,98.0,WeatherDisplay:10.37,2013-02-27 18:48:00,
2013-02-27 12:53:00,30.5,27.9,29.93,WNW,284,6.0,9.2,90,0.01,-SN,,0.01,107.8,WeatherDisplay:10.37,2013-02-27 18:53:00,
2013-02-27 12:58:00,30.5,27.9,29.93,West,269,7.9,17.3,90,0.01,-SN,,0.01,103.6,WeatherDisplay:10.37,2013-02-27 18:58:00,
2013-02-27 13:03:00,30.5,27.9,29.92,West,273,5.1,9.2,90,0.01,-SN,,0.01,106.4,WeatherDisplay:10.37,2013-02-27 19:03:00,
2013-02-27 13:09:00,30.6,28.0,29.93,West,262,6.6,9.0,90,0.02,-SN,,0.02,91.0,WeatherDisplay:10.37,2013-02-27 19:09:00,
2013-02-27 13:14:00,30.7,28.1,29.92,SSW,197,6.1,16.1,90,0.02,-SN,,0.02,91.0,WeatherDisplay:10.37,2013-02-27 19:14:00,
2013-02-27 13:19:00,30.5,27.6,29.92,West,264,5.0,8.1,89,0.02,-SN,,0.02,103.6,WeatherDisplay:10.37,2013-02-27 19:19:00,
2013-02-27 13:24:00,30.4,27.5,29.92,WSW,253,8.9,13.8,89,0.02,-SN,,0.02,110.6,WeatherDisplay:10.37,2013-02-27 19:24:00,
2013-02-27 13:30:00,30.4,27.5,29.92,West,275,4.9,11.5,89,0.03,-SN,,0.03,137.2,WeatherDisplay:10.37,2013-02-27 19:30:00,
2013-02-27 13:35:00,30.4,27.5,29.92,West,279,5.2,6.9,89,0.03,-SN,,0.03,123.2,WeatherDisplay:10.37,2013-02-27 19:35:00,
2013-02-27 13:40:00,30.5,27.6,29.92,West,272,4.1,11.5,89,0.03,-SN,,0.03,116.2,WeatherDisplay:10.37,2013-02-27 19:40:00,
2013-02-27 13:45:00,30.5,27.4,29.92,WNW,283,5.8,14.0,88,0.03,-SN,,0.03,123.2,WeatherDisplay:10.37,2013-02-27 19:45:00,
2013-02-27 13:51:00,30.6,27.5,29.92,WNW,298,8.6,11.5,88,0.03,-SN,,0.03,110.6,WeatherDisplay:10.37,2013-02-27 19:51:00,
2013-02-27 13:56:00,30.6,27.5,29.92,West,270,8.0,17.0,88,0.00,-SN,-SN,0.03,103.6,WeatherDisplay:10.37,2013-02-27 19:56:00,
2013-02-27 14:01:00,30.5,27.4,29.92,West,271,6.9,10.4,88,0.02,-SN,,0.03,103.6,WeatherDisplay:10.37,2013-02-27 20:01:00,
2013-02-27 14:06:00,30.6,27.5,29.92,WNW,292,5.7,16.1,88,0.01,-SN,,0.03,127.4,WeatherDisplay:10.37,2013-02-27 20:06:00,
2013-02-27 14:11:00,30.8,27.9,29.92,WNW,296,6.0,6.9,89,0.01,-SN,,0.03,117.6,WeatherDisplay:10.37,2013-02-27 20:11:00,
2013-02-27 14:17:00,30.8,27.7,29.92,West,269,7.2,13.8,88,0.02,-SN,,0.04,117.6,WeatherDisplay:10.37,2013-02-27 20:17:00,
2013-02-27 14:22:00,30.7,27.6,29.92,West,277,8.2,11.5,88,0.02,-SN,,0.04,103.6,WeatherDisplay:10.37,2013-02-27 20:22:00,
2013-02-27 14:27:00,30.7,27.6,29.92,West,260,9.7,15.0,88,0.02,-SN,,0.04,81.2,WeatherDisplay:10.37,2013-02-27 20:27:00,
2013-02-27 14:32:00,30.5,27.4,29.93,West,273,9.6,16.1,88,0.01,-SN,,0.04,84.0,WeatherDisplay:10.37,2013-02-27 20:32:00,
2013-02-27 14:38:00,30.5,27.4,29.93,West,262,8.6,20.7,88,0.01,-SN,,0.04,81.2,WeatherDisplay:10.37,2013-02-27 20:38:00,
2013-02-27 14:43:00,30.4,27.3,29.93,WSW,250,2.2,3.5,88,0.01,-SN,,0.04,81.2,WeatherDisplay:10.37,2013-02-27 20:43:00,
2013-02-27 14:48:00,30.3,27.2,29.93,West,259,6.9,12.7,88,0.01,-SN,,0.04,96.6,WeatherDisplay:10.37,2013-02-27 20:48:00,
2013-02-27 14:53:00,30.4,27.3,29.93,West,263,5.5,11.5,88,0.01,-SN,,0.04,96.6,WeatherDisplay:10.37,2013-02-27 20:53:00,
2013-02-27 14:59:00,30.4,27.3,29.94,WSW,255,4.7,8.1,88,0.01,-SN,,0.04,98.0,WeatherDisplay:10.37,2013-02-27 20:59:00,
2013-02-27 15:04:00,30.5,27.4,29.94,WNW,288,5.5,8.1,88,0.01,-SN,,0.04,96.6,WeatherDisplay:10.37,2013-02-27 21:04:00,
2013-02-27 15:09:00,30.6,27.5,29.94,NW,324,7.6,11.5,88,0.02,-SN,,0.05,123.2,WeatherDisplay:10.37,2013-02-27 21:09:00,
2013-02-27 15:14:00,30.7,27.6,29.95,WNW,286,3.3,11.0,88,0.02,-SN,,0.05,110.6,WeatherDisplay:10.37,2013-02-27 21:14:00,
2013-02-27 15:20:00,30.8,27.7,29.94,West,277,8.0,13.0,88,0.01,-SN,,0.05,107.8,WeatherDisplay:10.37,2013-02-27 21:20:00,
2013-02-27 15:25:00,30.7,27.6,29.95,West,271,4.5,6.9,88,0.01,-SN,,0.05,98.0,WeatherDisplay:10.37,2013-02-27 21:25:00,
2013-02-27 15:30:00,30.7,27.6,29.95,West,265,6.1,9.2,88,0.01,-SN,,0.05,91.0,WeatherDisplay:10.37,2013-02-27 21:30:00,
2013-02-27 15:35:00,30.8,27.7,29.95,West,273,7.8,11.5,88,0.01,-SN,,0.05,137.2,WeatherDisplay:10.37,2013-02-27 21:35:00,
2013-02-27 15:41:00,30.8,27.7,29.95,WNW,288,7.2,12.7,88,0.01,-SN,,0.05,106.4,WeatherDisplay:10.37,2013-02-27 21:41:00,
2013-02-27 15:46:00,30.9,27.8,29.95,WNW,282,6.0,15.0,88,0.00,-SN,-SN,0.05,103.6,WeatherDisplay:10.37,2013-02-27 21:46:00,
2013-02-27 15:51:00,31.0,27.9,29.95,West,270,4.0,8.1,88,0.01,-SN,,0.05,100.8,WeatherDisplay:10.37,2013-02-27 21:51:00,
2013-02-27 15:56:00,31.0,27.6,29.95,NW,307,6.6,9.2,87,0.01,-SN,,0.05,93.8,WeatherDisplay:10.37,2013-02-27 21:56:00,
2013-02-27 16:01:00,30.9,27.5,29.95,West,273,10.0,18.4,87,0.01,-SN,,0.05,84.0,WeatherDisplay:10.37,2013-02-27 22:01:00,
2013-02-27 16:07:00,30.9,27.8,29.95,West,263,6.9,15.0,88,0.01,-SN,,0.05,84.0,WeatherDisplay:10.37,2013-02-27 22:07:00,
2013-02-27 16:12:00,31.0,27.9,29.95,West,280,4.9,10.4,88,0.00,-SN,,0.05,81.2,WeatherDisplay:10.37,2013-02-27 22:12:00,
2013-02-27 16:17:00,31.0,27.6,29.95,NW,309,6.6,11.5,87,0.00,-SN,,0.05,74.2,WeatherDisplay:10.37,2013-02-27 22:17:00,
2013-02-27 16:22:00,31.0,27.6,29.96,WNW,302,5.9,10.4,87,0.00,-SN,,0.05,64.4,WeatherDisplay:10.37,2013-02-27 22:22:00,
2013-02-27 16:28:00,30.9,27.5,29.96,West,267,4.7,11.5,87,0.00,-SN,,0.05,58.8,WeatherDisplay:10.37,2013-02-27 22:28:00,
2013-02-27 16:33:00,30.9,27.8,29.96,WNW,298,4.8,9.2,88,0.00,-SN,,0.05,61.6,WeatherDisplay:10.37,2013-02-27 22:33:00,
2013-02-27 16:36:00,30.7,27.3,29.98,NNW,329,3.0,8.0,87,0.00,RA,RA,0.06,9.8,WeatherDisplay:10.37,2013-02-27 22:36:00,
2013-02-27 16:38:00,30.8,27.4,29.96,West,263,4.4,6.9,87,0.00,-SN,,0.05,49.0,WeatherDisplay:10.37,2013-02-27 22:38:00,
2013-02-27 16:43:00,30.7,27.3,29.96,West,278,6.1,12.7,87,0.00,-SN,,0.05,44.8,WeatherDisplay:10.37,2013-02-27 22:43:00,
2013-02-27 16:49:00,30.6,27.2,29.97,WNW,292,6.6,8.1,87,0.00,-SN,,0.05,39.2,WeatherDisplay:10.37,2013-02-27 22:49:00,
2013-02-27 16:54:00,30.6,27.2,29.97,WNW,286,4.9,9.2,87,0.00,-SN,,0.05,32.2,WeatherDisplay:10.37,2013-02-27 22:54:00,
2013-02-27 16:59:00,30.6,27.2,29.97,WNW,288,3.8,5.8,87,0.00,-SN,,0.05,26.6,WeatherDisplay:10.37,2013-02-27 22:59:00,
2013-02-27 17:04:00,30.6,27.2,29.97,NW,321,4.2,10.0,87,0.00,-SN,,0.05,29.4,WeatherDisplay:10.37,2013-02-27 23:04:00,
2013-02-27 17:10:00,30.6,27.2,29.97,West,278,3.3,8.1,87,0.01,-SN,,0.06,16.8,WeatherDisplay:10.37,2013-02-27 23:10:00,
2013-02-27 17:15:00,30.6,27.2,29.97,WNW,293,4.4,8.1,87,0.01,-SN,,0.06,15.4,WeatherDisplay:10.37,2013-02-27 23:15:00,
2013-02-27 17:20:00,30.6,27.2,29.98,West,280,1.7,4.0,87,0.01,-SN,,0.06,9.8,WeatherDisplay:10.37,2013-02-27 23:20:00,
2013-02-27 17:25:00,30.7,27.3,29.98,WNW,284,4.8,8.0,87,0.01,-SN,,0.06,9.8,WeatherDisplay:10.37,2013-02-27 23:25:00,
2013-02-27 17:39:00,30.8,27.4,29.98,West,274,5.2,8.1,87,0.01,-SN,,0.06,9.8,WeatherDisplay:10.37,2013-02-27 23:39:00,
2013-02-27 17:44:00,30.8,27.4,29.98,West,261,4.0,4.6,87,0.01,-SN,,0.06,7.0,WeatherDisplay:10.37,2013-02-27 23:44:00,
2013-02-27 17:49:00,30.9,27.2,29.98,WNW,283,2.1,4.6,86,0.01,-SN,,0.06,0.0,WeatherDisplay:10.37,2013-02-27 23:49:00,
2013-02-27 17:54:00,30.9,27.2,29.98,NW,321,3.0,5.8,86,0.01,-SN,,0.06,0.0,WeatherDisplay:10.37,2013-02-27 23:54:00,
2013-02-27 18:00:00,31.0,27.3,29.98,West,266,3.0,4.0,86,0.01,-SN,,0.06,0.0,WeatherDisplay:10.37,2013-02-28 00:00:00,
2013-02-27 18:05:00,31.0,27.3,29.98,West,275,6.6,11.5,86,0.01,OVC,,0.06,0.0,WeatherDisplay:10.37,2013-02-28 00:05:00,
2013-02-27 18:10:00,31.0,27.3,29.98,West,264,4.7,8.1,86,0.00,OVC,,0.06,0.0,WeatherDisplay:10.37,2013-02-28 00:10:00,
2013-02-27 18:15:00,31.0,27.3,29.98,NW,312,2.8,7.0,86,0.00,OVC,,0.06,0.0,WeatherDisplay:10.37,2013-02-28 00:15:00,
2013-02-27 18:21:00,31.0,27.3,29.98,WNW,288,5.0,6.0,86,0.00,OVC,,0.06,0.0,WeatherDisplay:10.37,2013-02-28 00:21:00,
2013-02-27 18:26:00,31.0,27.3,29.99,West,274,5.0,12.0,86,0.00,OVC,OVC,0.06,0.0,WeatherDisplay:10.37,2013-02-28 00:26:00,
2013-02-27 18:31:00,31.0,27.6,29.98,West,279,4.3,4.6,87,0.00,OVC,,0.06,0.0,WeatherDisplay:10.37,2013-02-28 00:31:00,
2013-02-27 18:36:00,31.0,27.6,29.99,West,281,3.0,7.0,87,0.00,OVC,OVC,0.06,0.0,WeatherDisplay:10.37,2013-02-28 00:36:00,
2013-02-27 18:41:00,31.0,27.6,29.99,West,262,5.5,11.5,87,0.00,OVC,,0.06,0.0,WeatherDisplay:10.37,2013-02-28 00:41:00,
2013-02-27 18:46:00,31.0,27.6,29.99,WNW,298,3.7,7.0,87,0.00,OVC,,0.06,0.0,WeatherDisplay:10.37,2013-02-28 00:46:00,
2013-02-27 18:52:00,31.1,27.7,30.00,WNW,294,2.7,6.9,87,0.00,OVC,,0.06,0.0,WeatherDisplay:10.37,2013-02-28 00:52:00,
2013-02-27 18:57:00,31.2,27.5,29.99,NW,306,3.8,5.0,86,0.00,OVC,,0.06,0.0,WeatherDisplay:10.37,2013-02-28 00:57:00,
2013-02-27 19:02:00,31.3,27.6,30.00,West,261,3.7,10.4,86,0.00,OVC,,0.06,0.0,WeatherDisplay:10.37,2013-02-28 01:02:00,
2013-02-27 19:08:00,31.4,27.4,30.00,West,265,2.2,5.0,85,0.00,OVC,,0.06,0.0,WeatherDisplay:10.37,2013-02-28 01:08:00,
2013-02-27 19:13:00,31.6,27.6,30.00,NW,315,5.4,7.0,85,0.00,OVC,,0.06,0.0,WeatherDisplay:10.37,2013-02-28 01:13:00,
2013-02-27 19:18:00,31.7,27.4,30.00,West,276,2.3,4.6,84,0.00,OVC,,0.06,0.0,WeatherDisplay:10.37,2013-02-28 01:18:00,
2013-02-27 19:23:00,31.7,27.4,30.00,WNW,284,1.3,3.5,84,0.00,OVC,,0.06,0.0,WeatherDisplay:10.37,2013-02-28 01:23:00,
2013-02-27 19:29:00,31.7,27.4,30.00,West,275,1.8,5.8,84,0.00,OVC,,0.06,0.0,WeatherDisplay:10.37,2013-02-28 01:29:00,
2013-02-27 19:36:00,31.7,27.4,30.00,West,269,5.0,6.0,84,0.00,OVC,,0.06,0.0,WeatherDisplay:10.37,2013-02-28 01:36:00,
2013-02-27 19:41:00,31.7,27.4,30.00,West,273,3.3,6.0,84,0.00,OVC,,0.06,0.0,WeatherDisplay:10.37,2013-02-28 01:41:00,
2013-02-27 19:46:00,31.7,27.1,30.00,West,259,4.5,8.1,83,0.00,OVC,,0.06,0.0,WeatherDisplay:10.37,2013-02-28 01:46:00,
2013-02-27 19:52:00,31.7,27.1,30.00,West,269,2.7,4.6,83,0.00,OVC,,0.06,0.0,WeatherDisplay:10.37,2013-02-28 01:52:00,
2013-02-27 19:57:00,31.7,27.1,30.01,West,277,1.9,3.5,83,0.00,OVC,,0.06,0.0,WeatherDisplay:10.37,2013-02-28 01:57:00,
2013-02-27 20:02:00,31.7,27.1,30.00,West,262,4.9,9.2,83,0.00,OVC,,0.06,0.0,WeatherDisplay:10.37,2013-02-28 02:02:00,
2013-02-27 20:07:00,31.8,27.2,30.00,West,276,4.9,6.9,83,0.00,OVC,,0.06,0.0,WeatherDisplay:10.37,2013-02-28 02:07:00,
2013-02-27 20:13:00,31.8,27.2,30.01,WSW,257,3.7,7.0,83,0.00,OVC,,0.06,0.0,WeatherDisplay:10.37,2013-02-28 02:13:00,
2013-02-27 20:18:00,31.9,27.3,30.01,WSW,246,0.8,6.9,83,0.00,OVC,,0.06,0.0,WeatherDisplay:10.37,2013-02-28 02:18:00,
2013-02-27 20:23:00,31.9,27.3,30.01,West,276,2.3,3.5,83,0.00,OVC,,0.06,0.0,WeatherDisplay:10.37,2013-02-28 02:23:00,
2013-02-27 20:28:00,31.9,27.3,30.01,West,267,4.4,6.9,83,0.00,OVC,,0.06,0.0,WeatherDisplay:10.37,2013-02-28 02:28:00,
2013-02-27 20:34:00,31.9,27.3,30.01,NW,304,4.5,8.0,83,0.00,OVC,,0.06,0.0,WeatherDisplay:10.37,2013-02-28 02:34:00,
2013-02-27 20:39:00,32.0,27.4,30.01,West,269,3.4,4.0,83,0.00,OVC,,0.06,0.0,WeatherDisplay:10.37,2013-02-28 02:39:00,
2013-02-27 20:44:00,32.0,27.4,30.01,West,264,4.6,8.0,83,0.00,OVC,,0.06,0.0,WeatherDisplay:10.37,2013-02-28 02:44:00,
2013-02-27 20:49:00,32.1,27.2,30.01,West,267,3.5,5.8,82,0.00,OVC,,0.06,0.0,WeatherDisplay:10.37,2013-02-28 02:49:00,
2013-02-27 20:55:00,32.1,27.2,30.02,West,279,5.4,8.0,82,0.00,OVC,,0.06,0.0,WeatherDisplay:10.37,2013-02-28 02:55:00,
2013-02-27 21:00:00,32.1,27.2,30.01,West,279,6.5,11.5,82,0.00,OVC,,0.06,0.0,WeatherDisplay:10.37,2013-02-28 03:00:00,
2013-02-27 21:05:00,32.1,27.2,30.02,West,269,6.1,9.2,82,0.00,OVC,,0.06,0.0,WeatherDisplay:10.37,2013-02-28 03:05:00,
2013-02-27 21:10:00,32.1,27.5,30.02,WNW,284,7.0,9.2,83,0.00,OVC,,0.06,0.0,WeatherDisplay:10.37,2013-02-28 03:10:00,
2013-02-27 21:16:00,32.2,27.9,30.03,WSW,253,8.0,12.0,84,0.00,OVC,,0.06,0.0,WeatherDisplay:10.37,2013-02-28 03:16:00,
2013-02-27 21:21:00,32.1,27.8,30.02,WNW,290,4.2,6.9,84,0.00,OVC,,0.06,0.0,WeatherDisplay:10.37,2013-02-28 03:21:00,
2013-02-27 21:26:00,32.1,28.1,30.02,West,276,6.0,12.0,85,0.00,OVC,OVC,0.06,0.0,WeatherDisplay:10.37,2013-02-28 03:26:00,
2013-02-27 21:31:00,32.1,28.1,30.02,West,267,4.9,9.2,85,0.00,OVC,,0.06,0.0,WeatherDisplay:10.37,2013-02-28 03:31:00,
2013-02-27 21:36:00,32.0,28.0,30.02,WNW,282,5.3,10.0,85,0.00,OVC,,0.06,0.0,WeatherDisplay:10.37,2013-02-28 03:36:00,
2013-02-27 21:42:00,31.9,27.9,30.03,WNW,289,4.7,8.1,85,0.00,OVC,,0.06,0.0,WeatherDisplay:10.37,2013-02-28 03:42:00,
2013-02-27 21:47:00,31.6,27.9,30.03,WNW,282,5.6,11.0,86,0.00,OVC,,0.06,0.0,WeatherDisplay:10.37,2013-02-28 03:47:00,
2013-02-27 21:52:00,31.4,27.7,30.03,WNW,285,5.8,8.1,86,0.00,OVC,,0.06,0.0,WeatherDisplay:10.37,2013-02-28 03:52:00,
2013-02-27 21:57:00,31.2,27.8,30.03,West,268,6.9,11.5,87,0.00,OVC,,0.06,0.0,WeatherDisplay:10.37,2013-02-28 03:57:00,
2013-02-27 22:03:00,30.9,27.5,30.03,WNW,298,7.3,10.4,87,0.00,OVC,,0.06,0.0,WeatherDisplay:10.37,2013-02-28 04:03:00,
2013-02-27 22:08:00,30.6,27.2,30.03,WNW,284,7.7,14.0,87,0.00,OVC,,0.06,0.0,WeatherDisplay:10.37,2013-02-28 04:08:00,
2013-02-27 22:13:00,30.4,27.0,30.03,West,259,7.5,12.7,87,0.00,OVC,,0.06,0.0,WeatherDisplay:10.37,2013-02-28 04:13:00,
2013-02-27 22:24:00,30.1,27.0,30.03,WNW,296,6.6,8.1,88,0.00,OVC,,0.06,0.0,WeatherDisplay:10.37,2013-02-28 04:24:00,
2013-02-27 22:29:00,29.9,26.8,30.03,West,271,7.1,8.1,88,0.00,OVC,,0.06,0.0,WeatherDisplay:10.37,2013-02-28 04:29:00,
2013-02-27 22:34:00,29.7,26.9,30.04,WSW,248,7.1,10.4,89,0.00,OVC,,0.06,0.0,WeatherDisplay:10.37,2013-02-28 04:34:00,
2013-02-27 22:39:00,29.4,26.6,30.04,WNW,290,5.0,6.9,89,0.00,OVC,,0.06,0.0,WeatherDisplay:10.37,2013-02-28 04:39:00,
2013-02-27 22:45:00,29.2,26.6,30.04,West,280,4.4,12.0,90,0.00,OVC,,0.06,0.0,WeatherDisplay:10.37,2013-02-28 04:45:00,
2013-02-27 22:50:00,29.0,26.4,30.05,NW,307,4.0,6.9,90,0.00,OVC,,0.06,0.0,WeatherDisplay:10.37,2013-02-28 04:50:00,
2013-02-27 22:55:00,28.8,26.2,30.04,NW,324,5.4,10.4,90,0.00,OVC,,0.06,0.0,WeatherDisplay:10.37,2013-02-28 04:55:00,
2013-02-27 23:00:00,28.7,26.1,30.04,WNW,296,4.3,6.9,90,0.00,OVC,,0.06,0.0,WeatherDisplay:10.37,2013-02-28 05:00:00,
2013-02-27 23:02:00,28.6,26.0,30.04,West,269,7.1,7.1,90,0.00,-SN,,0.06,0.0,WeatherDisplay:10.37,2013-02-28 05:02:00,
2013-02-27 23:07:00,28.4,25.6,30.05,NW,315,5.4,6.9,89,0.00,-SN,,0.06,0.0,WeatherDisplay:10.37,2013-02-28 05:07:00,
2013-02-27 23:12:00,28.3,25.5,30.05,West,274,2.0,3.5,89,0.00,-SN,,0.06,0.0,WeatherDisplay:10.37,2013-02-28 05:12:00,
2013-02-27 23:18:00,28.1,25.3,30.05,West,275,5.0,6.9,89,0.00,-SN,,0.06,0.0,WeatherDisplay:10.37,2013-02-28 05:18:00,
2013-02-27 23:23:00,27.9,25.1,30.05,West,272,6.3,11.5,89,0.00,-SN,,0.06,0.0,WeatherDisplay:10.37,2013-02-28 05:23:00,
2013-02-27 23:28:00,27.8,25.0,30.05,NNW,327,2.9,5.0,89,0.00,-SN,,0.06,0.0,WeatherDisplay:10.37,2013-02-28 05:28:00,
2013-02-27 23:33:00,27.8,24.7,30.05,WSW,254,5.0,8.1,88,0.00,-SN,,0.06,0.0,WeatherDisplay:10.37,2013-02-28 05:33:00,
2013-02-27 23:39:00,27.5,24.4,30.05,WNW,296,4.0,5.8,88,0.00,-SN,,0.06,0.0,WeatherDisplay:10.37,2013-02-28 05:39:00,
2013-02-27 23:44:00,27.2,24.1,30.05,West,269,3.7,8.1,88,0.00,-SN,,0.06,0.0,WeatherDisplay:10.37,2013-02-28 05:44:00,
2013-02-27 23:49:00,26.8,23.7,30.06,WNW,294,4.9,9.2,88,0.00,-SN,,0.06,0.0,WeatherDisplay:10.37,2013-02-28 05:49:00,
2013-02-27 23:54:00,26.5,23.4,30.06,West,278,7.6,11.5,88,0.00,-SN,,0.06,0.0,WeatherDisplay:10.37,2013-02-28 05:54:00,